Location: Helsinki
(60.1699°N, 24.9384°E)
Time: 17:35:22
(UTC+02:00)

S-56A Canister/Altair - Pass Details

Date: 31 October 2020
Orbit: 633 x 2500 km, 38.9° (Epoch: 29 November)

Event Time Altitude Azimuth Distance (km) Brightness Sun altitude
Rises 07:34:39 0° 228° (SW) 3,569 10.7 -1.6°
Reaches altitude 10° 07:38:19 10° 204° (SSW) 2,922 10.6 -1.2°
Maximum altitude 07:41:57 15° 174° (S) 2,893 11.0 -0.8°
Drops below altitude 10° 07:46:15 10° 144° (SE) 3,601 12.3 -0.3°
Sets 07:51:44 0° 125° (SE) 5,030 15.0 0.3°
